HORIZON (RS59S)

Last updated on Wed Feb 05 2025 00:03:01 GMT+0000 (Coordinated Universal Time)

1 61757U 24199Y 25035.60179211 .00032618 00000+0 11376-2 0 9992 2 61757 97.3765 265.3704 0011382 268.0505 91.9432 15.29495965 60989
UTC large
Height (km)
Speed (km/s)
/
Latitude / Longitude
Inclination (degrees)
Orbital Period (minutes)
Azimuth
Elevation
Range (km)
Doppler Factor

Next 0 passes for location: London (51.5072 / 0.1276)

Sorry there are no passes over London.